Tracking 19164 objects as of 20-May-2018
HD Live streaming from Space Station
objects crossing your sky now

FENGYUN 1C DEB

Track FENGYUN 1C DEB now!
10-day predictions


NORAD ID: 29828
Int'l Code: 1999-025DW
Perigee: 847.6 km
Apogee: 938.6 km
Inclination: 99.0 °
Period: 102.7 minutes
Semi major axis: 7264 km
RCS: 0.0109 m2 (small)
Launch date: May 10, 1999
Source: People's Republic of China (PRC)
Launch site: Taiyaun Space Center, China (TSC)

Note: This is SATELLITE DEBRIS
aabbcc
Your satellite tracking list
Your tracking list is empty




NASA's NSSDC Master Catalog

Two Line Element Set (TLE):
1 29828U 99025DW  18140.41295233 +.00000541 +00000-0 +37606-3 0  9992
2 29828 099.0202 205.9075 0062582 303.9165 117.6202 14.02265800579616
Source of the keplerian elements: AFSPC